Regional Weather Roundup
Issued by NWS Midland/Odessa, TX

Skip options and go directly to product.
Home | Oldest Version | Previous Version | Current Version | All | Text Only | Save Text | Print | Product List | Glossary On

Skip product version selection by date and time.   
836
ASUS44 KMAF 300510
RWRMAF
MIDLAND AREA WEATHER ROUNDUP
NATIONAL WEATHER SERVICE MIDLAND TX
1200 AM CDT SUN AUG 30 2015

...IN SOUTHWEST TEXAS AND SOUTHEAST NEW MEXICO...

CITY           SKY/WX    TMP DP  RH WIND       PRES   REMARKS
ALPINE         CLEAR     63  48  58 CALM      30.24S
ANDREWS        FAIR      67  59  73 CALM      30.15R
ARTESIA        CLEAR     72  66  83 SE9       30.15S
BIG SPRING     PTCLDY    70  56  61 CALM      30.12S
CARLSBAD       PTCLDY    75  53  46 SE6       30.12R
DRYDEN           N/A     80  58  46 NW6       30.02F
FORT STOCKTON  MOCLDY    72  56  57 SE3       30.10F
GUAD PASS      PTCLDY    67  51  56 NE21      30.25F
HOBBS            N/A     64  59  82 CALM      30.17S
MARFA          CLEAR     61  48  63 NE5       30.22S
MIDLAND AIRPK  CLEAR     73  58  57 CALM      30.13R
MIDLAND INTL   PTCLDY    66  59  78 CALM      30.11F
ODESSA         PTCLDY    69  58  67 E6        30.13S
PECOS          CLEAR     72  54  53 E6        30.08F
PRESIDIO       NOT AVBL
SEMINOLE       CLEAR     67  52  59 CALM      30.16F
SNYDER         MOCLDY    68  55  63 W3        30.09S
WINK           PTCLDY    71  59  65 E8        30.10S
$$
...OTHER STATIONS IN TEXAS...

CITY           SKY/WX    TMP DP  RH WIND       PRES   REMARKS
ABILENE        CLOUDY    73  62  68 E6        30.03F
AMARILLO       PTCLDY    69  58  67 CALM      30.15F
AUSTIN         CLOUDY    80  64  58 S9        30.00S
BROWNSVILLE    CLEAR     79  73  82 SE3       29.99R
CORPUS CHRISTI PTCLDY    75  62  64 S8        30.00S
DALLAS FTW     MOCLDY    81  64  56 S7        29.97S
DEL RIO        MOCLDY    86  53  32 SE8       29.95F
EL PASO        PTCLDY    82  53  36 E13       30.11S
HOUSTON INT    MOCLDY    75  66  73 S3        30.01F
LUBBOCK        MOCLDY    68  57  68 NW6       30.13F
SAN ANGELO     CLOUDY    77  56  48 CALM      30.05F
SAN ANTONIO    MOCLDY    81  66  60 SE14      30.02R
WACO           CLOUDY    84  64  50 S9        30.00S
WICHITA FALLS  NOT AVBL
$$
...OTHER LOCATIONS IN NEW MEXICO...

CITY           SKY/WX    TMP DP  RH WIND       PRES   REMARKS
ALAMAGORDO     PTCLDY    73  57  56 N5        30.14F
ALBUQUERQUE    PTCLDY    75  47  36 E10       30.23R
CANNON AFB     CLEAR     68  55  64 CALM      30.19F
CLOVIS         CLEAR     64  57  77 CALM      30.21S
HOLLOMAN AFB   PTCLDY    77  57  50 N7        30.13R
ROSWELL        CLEAR     69  59  70 CALM      30.15S
RUIDOSO        CLEAR     59  54  82 MISG      30.38S
SANTA FE       CLEAR     65  45  48 SE8       30.31R
TRUTH OR CONSE PTCLDY    78  50  37 W5        30.20R
TUCUMCARI      CLEAR     66  56  70 CALM      30.17S
$$

USA.gov is the U.S. government's official web portal to all federal, state and local government web resources and services.